Showing default

WGS 10 (USA 291), 44071

Orbit data source: Space-Track

WGS 10 (USA 291), 44071 is a payload satellite owned by USAF SMC (US) in GEO that was launched on Sat, 16 Mar 2019 UTC via a DELTA 4M+(5,4) launch vehicle from the Air Force Eastern Test Range (AFETR). Payload-class satellites include a variety of spacecraft equipped with specific instruments for various scientific and technological missions. These include communications satellites like Starlink; space stations such as the ISS; scientific satellites like the Hubble; Earth observation satellites from companies like Planet Labs, Umbra, and HawkEye 360; GPS; miniature CubeSats for education and research; and military/defense satellites.

Not visible in the next 10 days
Identifier
44071, 2019-014A
Orbit
GEO
Country
Flag of USUS
Related business
Manufacturer
Boeing/ES
Mission
Operational Defense Communications
Bus & Motor
BSS-702HP, R-4D-15-375
Mass
6,000 kg wet, ~3,400 kg dry
Launch date (UTC)
2019-03-16 (7 years ago)
Launch vehicle
DELTA 4M+(5,4)
Launch site
Air Force Eastern Test Range (AFETR)
Object type
Payload
Rocket body
Debris
Shape & HBR
Box + 2 Pan, 20.4 m
Radar Cross Section
52.962 m², Large (>1 m²)

Expand to show TLE details & history
Last TLE update: 15 hours ago

TLE from 15 hours ago
0 WGS 10 (USA 291)
1 44071U 19014A   25309.04717466  .00000059  00000-0  00000-0 0  9999
2 44071   0.0209 291.7368 0000269 348.8871 201.2249  1.00270422 24375
Epoch: 2025-11-05T01:07Z
TLE epoch observation values (Epoch: 2025-11-05T01:07:55.890Z)
Latitude
-0.01597°
Longitude
60.30035°
Altitude
35,787.522 km
Speed
3.075 km/s
True Right ascension
08h 07m 14s
True Declination
0° 00' 57"
Sunlit
Object was in daylight at epoch
Visualization orbit readout
Latitude
Unknown
Longitude
Unknown
Altitude
Unknown
Speed
Unknown
Apparent Right ascension
Unknown
Apparent Declination
Unknown
Sunlit
N/A
Visualization observer readout
Local Sidereal Time
12:10:14
Azimuth
Unknown
Elevation
Unknown
Doppler factor
Unknown
Orbital elements
Apogee altitude
35,789.182 km
Perigee altitude
35,786.913 km
Semi-major axis
42,166.184 km
Eccentricity
0.00003
Inclination
0.0209°
RAAN
291.7368°
Arg. of periapsis
348.8871°
True anomaly
201.22378°
Mean anomaly
201.2249°
Eccentric anomaly
201.22434°
Mean motion
0.25067 °/min
Orbital period
1,436.17 mins
BSTAR
0
Loading maneuver chart data...
Computing Atmospheric mass density...
Loading historical data...
Loading historical data...
Loading historical data...
Loading historical data...
Loading historical data...
Loading historical data...
Loading historical data...
Other satellites on launch #14 in the year 2019 (2019-03-16 UTC)

Documentation

Showing up to 5 results
|